Effingham, IL

5:46 AM CDT on June 25, 2017 (GMT -0500)
Effingham

Weather History for K1H2 - August, 2014

Change the Weather History Date:

Saturday, August 30, 2014

  Actual Average (KMTO) Record (KMTO)
Temperature  
Mean Temperature 76 °F -  
Max Temperature 81 °F 84 °F 97 °F (1953)
Min Temperature 71 °F 62 °F 42 °F (1986)
Cooling Degree Days 10    
Growing Degree Days 26 (Base 50)    
Moisture  
Dew Point 67 °F    
Average Humidity 74    
Maximum Humidity 88    
Minimum Humidity 64    
Precipitation  
Precipitation 0.04 in - - ()
Sea Level Pressure  
Sea Level Pressure 29.97 in    
Wind  
Wind Speed 7 mph (South)    
Max Wind Speed 13 mph    
Max Gust Speed 20 mph    
Visibility 10 miles    
Events Rain , Thunderstorm    
Averages and records for this station are not official NWS values.
T = Trace of Precipitation, MM = Missing Value Source: NWS Daily Summary

Daily Weather History Graph

Daily Weather History Graph

Search for Another Location

Airport or City:

Trip Planner

Search our weather history database for the weather conditions in past years. The results will help you decide how hot, cold, wet, or windy it might be!

Date:

Astronomy

Aug. 30, 2014 Rise Set
Actual Time 6:21 AM CDT 7:27 PM CDT
Civil Twilight 5:53 AM CDT 7:55 PM CDT
Nautical Twilight 5:20 AM CDT 8:27 PM CDT
Astronomical Twilight 4:46 AM CDT 9:01 PM CDT
Moon 11:05 AM CDT (8/30) 10:04 PM CDT (8/30)
Length of Visible Light 14h 01m
Length of Day
13h 06m
Waxing Crescent, 23% of the Moon is Illuminated
Aug 30
Waxing Crescent
Sep 2
First Quarter
Sep 8
Full
Sep 15
Last Quarter
Sep 24
New

Hourly Weather History & Observations

Time (CDT) Temp. Heat Index Dew Point Humidity Pressure Visibility Wind Dir Wind Speed Gust Speed Precip Events Conditions
12:15 AM 76.6 °F - 64.4 °F 66% 29.94 in 10.0 mi South 4.6 mph - N/A   Scattered Clouds
12:35 AM 76.1 °F - 64.4 °F 67% 29.95 in 10.0 mi South 4.6 mph - N/A   Clear
12:55 AM 76.1 °F - 64.6 °F 67% 29.95 in 10.0 mi South 4.6 mph - N/A   Clear
1:15 AM 76.1 °F - 64.6 °F 67% 29.95 in 10.0 mi South 5.8 mph - N/A   Clear
1:35 AM 76.1 °F - 64.6 °F 67% 29.95 in 10.0 mi South 6.9 mph - N/A   Clear
1:55 AM 75.6 °F - 64.8 °F 69% 29.95 in 10.0 mi SSW 9.2 mph - N/A Rain Light Rain
2:15 AM 75.4 °F - 64.9 °F 70% 29.95 in 10.0 mi South 8.1 mph - N/A Rain Rain
2:35 AM 75.2 °F - 64.9 °F 70% 29.95 in 10.0 mi SSW 9.2 mph - N/A Rain Light Rain
2:55 AM 74.5 °F - 64.4 °F 71% 29.95 in 10.0 mi SSW 12.7 mph - N/A Rain Rain
3:15 AM 74.5 °F - 63.9 °F 69% 29.95 in 10.0 mi SSW 10.4 mph 17.3 mph N/A Rain Rain
3:35 AM 74.3 °F - 63.9 °F 70% 29.95 in 10.0 mi SSW 6.9 mph - N/A Rain Rain
3:55 AM 73.6 °F - 64.4 °F 73% 29.96 in 10.0 mi South 8.1 mph - N/A Rain Light Rain
4:15 AM 72.7 °F - 64.8 °F 76% 29.95 in 10.0 mi South 5.8 mph - N/A Rain Light Rain
4:35 AM 72.5 °F - 64.9 °F 77% 29.95 in 10.0 mi South 4.6 mph - N/A Rain Rain
4:55 AM 72.7 °F - 64.9 °F 77% 29.95 in 10.0 mi South 4.6 mph - N/A Rain Rain
5:15 AM 72.7 °F - 64.8 °F 76% 29.95 in 10.0 mi South 4.6 mph - N/A Rain Rain
5:35 AM 72.7 °F - 64.8 °F 76% 29.96 in 10.0 mi SSW 4.6 mph - N/A Rain Rain
5:55 AM 72.7 °F - 64.9 °F 77% 29.97 in 10.0 mi SSW 6.9 mph - N/A Rain Rain
6:15 AM 72.5 °F - 66.0 °F 80% 29.98 in 10.0 mi SW 8.1 mph - N/A Rain Light Rain
6:35 AM 72.0 °F - 67.3 °F 85% 29.98 in 10.0 mi SSW 8.1 mph - 0.01 in Rain Light Rain
6:55 AM 71.6 °F - 67.1 °F 86% 29.98 in 10.0 mi SSW 5.8 mph - 0.04 in Rain Rain
7:15 AM 71.4 °F - 67.3 °F 87% 29.98 in 10.0 mi South 5.8 mph - N/A Rain Heavy Rain
7:35 AM 71.6 °F - 67.6 °F 87% 29.98 in 10.0 mi South 5.8 mph - N/A Rain Rain
7:55 AM 72.0 °F - 68.2 °F 88% 29.98 in 10.0 mi South 4.6 mph - N/A Rain Rain
8:15 AM 72.1 °F - 68.0 °F 87% 29.97 in 10.0 mi South 5.8 mph - N/A Rain Rain
8:35 AM 72.5 °F - 68.2 °F 86% 29.98 in 10.0 mi South 4.6 mph - N/A Rain Rain
8:55 AM 72.5 °F - 68.2 °F 86% 29.98 in 10.0 mi South 6.9 mph - N/A Rain Rain
9:15 AM 73.8 °F - 68.9 °F 85% 29.99 in 10.0 mi South 8.1 mph - N/A Rain Rain
9:35 AM 76.1 °F - 69.3 °F 79% 30.00 in 10.0 mi South 11.5 mph - N/A Rain Rain
9:55 AM 75.9 °F - 68.5 °F 78% 30.00 in 10.0 mi South 10.4 mph - N/A Rain Rain
10:15 AM 77.0 °F - 68.2 °F 74% 30.01 in 10.0 mi SSW 12.7 mph - N/A Rain , Thunderstorm Rain
10:35 AM 78.8 °F - 67.5 °F 68% 30.01 in 10.0 mi SW 12.7 mph 19.6 mph N/A Rain Rain
10:55 AM 76.6 °F - 66.4 °F 70% 30.01 in 10.0 mi SSW 11.5 mph 17.3 mph N/A Rain Rain
11:15 AM 77.4 °F - 66.7 °F 70% 30.01 in 10.0 mi SSW 11.5 mph 17.3 mph N/A Rain Rain
11:35 AM 77.0 °F - 67.1 °F 71% 30.00 in 10.0 mi SSW 6.9 mph - N/A Rain Rain
11:55 AM 78.4 °F - 66.9 °F 68% 30.00 in 10.0 mi SSW 9.2 mph - N/A Rain Rain
12:15 PM 79.5 °F - 67.8 °F 67% 30.00 in 10.0 mi SSW 10.4 mph - N/A Rain Heavy Rain
12:35 PM 78.8 °F - 67.3 °F 68% 29.99 in 10.0 mi SSW 9.2 mph - N/A Rain Rain
12:55 PM 79.9 °F - 68.0 °F 67% 29.99 in 10.0 mi SW 9.2 mph - N/A Rain Rain
1:15 PM 80.4 °F 83.0 °F 67.5 °F 65% 29.98 in 10.0 mi SSW 12.7 mph - N/A Rain Rain
1:35 PM 80.4 °F 82.8 °F 67.3 °F 64% 29.98 in 10.0 mi SSW 12.7 mph - N/A Rain Rain
1:55 PM 80.6 °F 83.1 °F 67.3 °F 64% 29.97 in 10.0 mi SSW 11.5 mph - N/A Rain Rain
2:15 PM 80.2 °F 82.6 °F 66.9 °F 64% 29.96 in 10.0 mi SSW 11.5 mph 17.3 mph N/A Rain Rain
2:55 PM 80.6 °F 83.2 °F 68.0 °F 65% 29.94 in 10.0 mi South 8.1 mph - N/A Rain Rain
3:15 PM 80.8 °F 83.3 °F 67.5 °F 64% 29.94 in 10.0 mi South 6.9 mph - N/A Rain Rain
3:35 PM 80.8 °F 83.3 °F 67.5 °F 64% 29.95 in 10.0 mi South 11.5 mph 16.1 mph N/A   Scattered Clouds
3:55 PM 79.3 °F - 67.3 °F 66% 29.95 in 10.0 mi South 10.4 mph - N/A   Overcast
4:15 PM 79.7 °F - 67.8 °F 67% 29.94 in 10.0 mi SSW 8.1 mph - N/A   Mostly Cloudy
4:35 PM 79.2 °F - 68.2 °F 69% 29.94 in 10.0 mi South 8.1 mph - N/A   Overcast
4:55 PM 79.3 °F - 68.4 °F 69% 29.94 in 10.0 mi South 9.2 mph - N/A   Overcast
5:15 PM 79.9 °F - 68.2 °F 67% 29.94 in 10.0 mi South 11.5 mph - N/A   Scattered Clouds
5:35 PM 79.0 °F - 68.0 °F 69% 29.94 in 10.0 mi South 9.2 mph - N/A   Scattered Clouds
5:55 PM 79.2 °F - 68.5 °F 70% 29.94 in 7.0 mi South 9.2 mph - N/A   Mostly Cloudy
6:15 PM 79.0 °F - 68.4 °F 70% 29.94 in 10.0 mi South 11.5 mph - N/A   Mostly Cloudy
6:35 PM 77.9 °F - 68.5 °F 73% 29.93 in 10.0 mi SSE 6.9 mph - N/A   Overcast
6:55 PM 77.0 °F - 68.0 °F 74% 29.94 in 10.0 mi South 8.1 mph 16.1 mph N/A   Scattered Clouds
7:15 PM 76.5 °F - 67.6 °F 74% 29.95 in 10.0 mi South 5.8 mph - N/A   Scattered Clouds
7:35 PM 75.7 °F - 67.6 °F 76% 29.95 in 7.0 mi South 6.9 mph - N/A   Mostly Cloudy
7:55 PM 75.4 °F - 68.5 °F 79% 29.95 in 10.0 mi South 6.9 mph - N/A   Scattered Clouds
8:15 PM 75.2 °F - 69.8 °F 83% 29.95 in 10.0 mi South 6.9 mph - N/A   Mostly Cloudy
8:35 PM 74.8 °F - 69.8 °F 84% 29.96 in 10.0 mi South 6.9 mph - N/A   Mostly Cloudy
8:55 PM 74.7 °F - 69.8 °F 85% 29.96 in 7.0 mi South 5.8 mph - N/A   Scattered Clouds
9:15 PM 74.5 °F - 69.4 °F 84% 29.96 in 10.0 mi South 5.8 mph - N/A   Scattered Clouds
9:35 PM 74.3 °F - 68.9 °F 83% 29.96 in 10.0 mi South 5.8 mph - N/A   Clear
9:55 PM 74.1 °F - 68.2 °F 82% 29.97 in 10.0 mi South 6.9 mph - N/A   Clear
10:15 PM 73.8 °F - 68.0 °F 82% 29.98 in 10.0 mi South 5.8 mph - N/A   Clear
10:35 PM 73.4 °F - 68.2 °F 84% 29.98 in 10.0 mi South 8.1 mph - N/A   Clear
10:55 PM 73.4 °F - 68.4 °F 84% 29.98 in 10.0 mi South 9.2 mph - N/A   Scattered Clouds
11:15 PM 73.4 °F - 68.4 °F 84% 29.98 in 10.0 mi South 9.2 mph - N/A   Mostly Cloudy
11:35 PM 73.4 °F - 68.4 °F 84% 29.98 in 10.0 mi South 8.1 mph - N/A   Overcast